Weather History for EGNH - October, 2013

Change the Weather History Date:

Friday, October 4, 2013

  Actual Average Record
Temperature  
Mean Temperature 60 °F -  
Max Temperature 63 °F 54 °F 64 °F (2010)
Min Temperature 58 °F 45 °F 43 °F (2012)
Degree Days  
Heating Degree Days 4    
Growing Degree Days 10 (Base 50)    
Moisture  
Dew Point 59 °F    
Average Humidity 95    
Maximum Humidity 100    
Minimum Humidity 88    
Precipitation  
Precipitation 0.02 in - - ()
Sea Level Pressure  
Sea Level Pressure 29.68 in    
Wind  
Wind Speed 9 mph ()    
Max Wind Speed 15 mph    
Max Gust Speed -    
Visibility 5.2 miles    
Events Rain    
Averages and records for this station are not official NWS values.
T = Trace of Precipitation, MM = Missing Value Source: Averaged Metar Reports

Daily Weather History Graph

Daily Weather History Graph

Search for Another Location

Airport or City:

Trip Planner

Search our weather history database for the weather conditions in past years. The results will help you decide how hot, cold, wet, or windy it might be!

Date:

Astronomy

Oct. 04, 2013 Rise Set
Actual Time 7:19 AM BST 6:41 PM BST
Civil Twilight 6:44 AM BST 7:16 PM BST
Nautical Twilight 6:03 AM BST 7:56 PM BST
Astronomical Twilight 5:21 AM BST 8:38 PM BST
Moon 6:39 AM BST (10/4) 6:11 PM BST (10/4)
Length of Visible Light 12h 31m
Length of Day
11h 21m
Waning Crescent, 0% of the Moon is Illuminated
Oct 4
Waning Crescent
Oct 5
New
Oct 12
First Quarter
Oct 19
Full
Oct 27
Last Quarter

Hourly Weather History & Observations

Time (BST) Temp. Dew Point Humidity Pressure Visibility Wind Dir Wind Speed Gust Speed Precip Events Conditions
6:20 AM 60.8 °F 60.8 °F 100% 29.56 in 5.6 mi East 5.8 mph - N/A Rain Light Rain
6:50 AM 61 °F 60 °F 96%  in - East 5.8 mph - -  
6:50 AM 60.8 °F 60.8 °F 100% 29.56 in 3.7 mi ENE 5.8 mph - N/A Rain Rain
7:20 AM 62.6 °F 60.8 °F 94% 29.56 in 2.8 mi ENE 6.9 mph - N/A Rain Rain
7:50 AM 62.6 °F 60.8 °F 94% 29.56 in 3.7 mi ENE 5.8 mph - N/A Rain Light Rain
8:20 AM 62.6 °F 60.8 °F 94% 29.56 in 5.0 mi East 5.8 mph - N/A Rain Light Rain
8:50 AM 62.6 °F 62.6 °F 100% 29.56 in 5.0 mi ESE 8.1 mph - N/A   Scattered Clouds
9:20 AM 64.4 °F 62.6 °F 94% 29.56 in 5.6 mi SE 6.9 mph - N/A   Scattered Clouds
9:50 AM 64 °F 62 °F 92%  in - SSE 8.1 mph - -  
9:50 AM 64.4 °F 62.6 °F 94% 29.56 in 5.6 mi SSE 8.1 mph - N/A   Scattered Clouds
10:20 AM 64.4 °F 62.6 °F 94% 29.59 in 5.6 mi SSE 9.2 mph - N/A   Scattered Clouds
10:50 AM 62.6 °F 60.8 °F 94% 29.59 in 3.7 mi SSW 13.8 mph - N/A   Mostly Cloudy
11:20 AM 62.6 °F 60.8 °F 94% 29.59 in 3.7 mi SW 12.7 mph - N/A Rain Light Rain
11:50 AM 60.8 °F 59.0 °F 94% 29.59 in 4.3 mi WSW 15.0 mph - N/A   Mostly Cloudy
12:20 PM 60.8 °F 59.0 °F 94% 29.62 in 5.6 mi West 15.0 mph - N/A   Mostly Cloudy
12:50 PM 60 °F 60 °F 98%  in - West 15.0 mph - -  
12:50 PM 60.8 °F 60.8 °F 100% 29.65 in 5.6 mi WSW 13.8 mph - N/A Rain Light Rain
1:20 PM 60.8 °F 59.0 °F 94% 29.65 in 2.2 mi WSW 12.7 mph - N/A   Overcast
1:50 PM 60.8 °F 60.8 °F 100% 29.68 in 4.3 mi WSW 11.5 mph - N/A   Overcast
2:20 PM 60.8 °F 59.0 °F 94% 29.71 in 4.3 mi WSW 13.8 mph - N/A   Mostly Cloudy
2:50 PM 60.8 °F 59.0 °F 94% 29.71 in 6.2 mi West 13.8 mph - N/A   Mostly Cloudy
3:20 PM 60.8 °F 59.0 °F 94% 29.74 in 6.2 mi West 11.5 mph - N/A   Mostly Cloudy
3:50 PM 60 °F 58 °F 91%  in - West 15.0 mph - -  
3:50 PM 60.8 °F 59.0 °F 94% 29.74 in 6.2 mi West 13.8 mph - N/A   Scattered Clouds
4:50 PM 60.8 °F 57.2 °F 88% 29.77 in 6.2 mi WSW 11.5 mph - N/A   Mostly Cloudy
5:20 PM 59.0 °F 57.2 °F 94% 29.80 in 6.2 mi West 13.8 mph - N/A   Mostly Cloudy
5:50 PM 59.0 °F 57.2 °F 94% 29.80 in 6.2 mi West 12.7 mph - N/A   Mostly Cloudy
6:20 PM 59.0 °F 57.2 °F 94% 29.80 in 6.2 mi West 11.5 mph - N/A   Mostly Cloudy
6:50 PM 58 °F 56 °F 91%  in - West 12.7 mph - -  
6:50 PM 59.0 °F 57.2 °F 94% 29.80 in 6.2 mi West 11.5 mph - N/A   Mostly Cloudy
7:20 PM 59.0 °F 57.2 °F 94% 29.83 in 6.2 mi WSW 10.4 mph - N/A   Mostly Cloudy
7:50 PM 59.0 °F 57.2 °F 94% 29.83 in 6.2 mi WSW 12.7 mph - N/A   Mostly Cloudy
8:20 PM 59.0 °F 57.2 °F 94% 29.83 in 6.2 mi WSW 11.5 mph - N/A   Mostly Cloudy
8:50 PM 59.0 °F 57.2 °F 94% 29.86 in 6.2 mi WSW 13.8 mph - N/A   Mostly Cloudy
9:50 PM 58 °F 56 °F 93%  in - West 15.0 mph - -